When you browse on this site, cookies collect data to enhance your experience and personalize the content and advertising you see.
Visit our Privacy Policy to learn more. By continuing to use the site, you agree to this use of cookies and data.
  • In Hungary
  • List of Countries
  • For 7 days
  • Water Temperature
  • Weather Map
  • News
  • Weather Widgets
  • user-avatar
    Login

    Hourly Weather Duhov

    Today, 15 October, Tuesday

    Time Temperature Precipitation Wind Pressure Humidity
    00:00 +15°C° 0 mm 1 mps 758 mmHg 53%
    01:00 +15°C° 0 mm 1 mps 758 mmHg 54%
    02:00 +14°C° 0 mm 1 mps 758 mmHg 55%
    03:00 +14°C° 0 mm 1 mps 758 mmHg 57%
    04:00 +14°C° 0 mm 1 mps 758 mmHg 58%
    05:00 +13°C° 0 mm 1 mps 757 mmHg 59%
    06:00 +13°C° 0 mm 1 mps 757 mmHg 60%
    07:00 +14°C° 0 mm 1 mps 757 mmHg 56%
    08:00 +15°C° 0 mm 1 mps 758 mmHg 53%
    09:00 +16°C° 0 mm 1 mps 758 mmHg 49%
    10:00 +19°C° 0 mm 1 mps 758 mmHg 45%
    11:00 +20°C° 0 mm 1 mps 758 mmHg 40%
    12:00 +21°C° 0 mm 1 mps 758 mmHg 35%
    13:00 +22°C° 0 mm 1 mps 758 mmHg 34%
    14:00 +23°C° 0 mm 1 mps 757 mmHg 32%
    15:00 +23°C° 0 mm 1 mps 757 mmHg 30%
    16:00 +22°C° 0 mm 1 mps 757 mmHg 33%
    17:00 +21°C° 0 mm 1 mps 756 mmHg 37%
    18:00 +20°C° 0 mm 1 mps 756 mmHg 40%
    19:00 +19°C° 0 mm 1 mps 756 mmHg 42%
    20:00 +19°C° 0 mm 1 mps 757 mmHg 44%
    21:00 +18°C° 0 mm 1 mps 757 mmHg 46%
    22:00 +18°C° 0 mm 1 mps 757 mmHg 49%
    23:00 +16°C° 0 mm 2 mps 757 mmHg 51%

    Tomorrow, 16 October, Wednesday

    Time Temperature Precipitation Wind Pressure Humidity
    00:00 +16°C° 0 mm 2 mps 757 mmHg 54%
    01:00 +16°C° 0 mm 2 mps 757 mmHg 57%
    02:00 +15°C° 0 mm 2 mps 757 mmHg 60%
    03:00 +15°C° 0 mm 2 mps 757 mmHg 63%
    04:00 +14°C° 0 mm 2 mps 757 mmHg 65%
    05:00 +14°C° 0 mm 2 mps 757 mmHg 68%
    06:00 +14°C° 0 mm 2 mps 757 mmHg 70%
    07:00 +15°C° 0 mm 2 mps 757 mmHg 67%
    08:00 +16°C° 0 mm 3 mps 757 mmHg 64%
    09:00 +17°C° 0 mm 3 mps 758 mmHg 62%
    10:00 +18°C° 0 mm 3 mps 758 mmHg 56%
    11:00 +20°C° 0 mm 3 mps 758 mmHg 51%
    12:00 +22°C° 0 mm 3 mps 758 mmHg 45%
    13:00 +22°C° 0 mm 3 mps 757 mmHg 44%
    14:00 +23°C° 0 mm 4 mps 757 mmHg 43%
    15:00 +23°C° 0 mm 4 mps 757 mmHg 42%
    16:00 +22°C° 0 mm 4 mps 757 mmHg 46%
    17:00 +21°C° 0 mm 3 mps 757 mmHg 51%
    18:00 +19°C° 0 mm 3 mps 757 mmHg 55%
    19:00 +19°C° 0 mm 4 mps 757 mmHg 60%
    20:00 +18°C° 0 mm 4 mps 758 mmHg 64%
    21:00 +17°C° 0 mm 4 mps 758 mmHg 69%
    22:00 +17°C° 0 mm 4 mps 758 mmHg 72%
    23:00 +15°C° 0 mm 4 mps 758 mmHg 74%

    Day after tomorrow, 17 October, Thursday

    Time Temperature Precipitation Wind Pressure Humidity
    00:00 +15°C° 0 mm 4 mps 758 mmHg 77%
    01:00 +14°C° 0 mm 5 mps 758 mmHg 79%
    02:00 +14°C° 0 mm 5 mps 758 mmHg 80%
    03:00 +13°C° 0 mm 5 mps 758 mmHg 82%
    04:00 +13°C° 0 mm 5 mps 758 mmHg 83%
    05:00 +12°C° 0 mm 5 mps 758 mmHg 84%
    06:00 +12°C° 0 mm 5 mps 758 mmHg 85%
    07:00 +13°C° 0 mm 5 mps 758 mmHg 80%
    08:00 +13°C° 0 mm 5 mps 758 mmHg 76%
    09:00 +14°C° 0 mm 5 mps 758 mmHg 71%
    10:00 +16°C° 0 mm 5 mps 758 mmHg 64%
    11:00 +17°C° 0 mm 5 mps 757 mmHg 57%
    12:00 +20°C° 0 mm 5 mps 757 mmHg 50%
    13:00 +21°C° 0 mm 5 mps 757 mmHg 47%
    14:00 +21°C° 0 mm 5 mps 757 mmHg 44%
    15:00 +22°C° 0 mm 5 mps 756 mmHg 42%
    16:00 +21°C° 0 mm 5 mps 756 mmHg 45%
    17:00 +20°C° 0 mm 4 mps 756 mmHg 49%
    18:00 +19°C° 0 mm 3 mps 756 mmHg 53%
    19:00 +18°C° 0 mm 4 mps 756 mmHg 56%
    20:00 +17°C° 0 mm 4 mps 756 mmHg 59%
    21:00 +17°C° 0 mm 4 mps 756 mmHg 62%
    22:00 +15°C° 0 mm 4 mps 756 mmHg 64%
    23:00 +14°C° 0 mm 3 mps 756 mmHg 67%

    18 October, Friday

    Time Temperature Precipitation Wind Pressure Humidity
    00:00 +14°C° 0 mm 3 mps 756 mmHg 70%
    01:00 +13°C° 0 mm 3 mps 756 mmHg 72%
    02:00 +13°C° 0 mm 3 mps 756 mmHg 75%
    03:00 +12°C° 0 mm 3 mps 755 mmHg 78%
    04:00 +12°C° 0 mm 3 mps 755 mmHg 80%
    05:00 +12°C° 0 mm 3 mps 755 mmHg 82%
    06:00 +11°C° 0 mm 3 mps 755 mmHg 84%
    07:00 +12°C° 0 mm 3 mps 755 mmHg 80%
    08:00 +13°C° 0 mm 3 mps 755 mmHg 75%
    09:00 +14°C° 0 mm 3 mps 755 mmHg 71%
    10:00 +17°C° 0 mm 3 mps 756 mmHg 64%
    11:00 +18°C° 0 mm 3 mps 756 mmHg 57%
    12:00 +20°C° 0 mm 3 mps 756 mmHg 50%
    13:00 +21°C° 0 mm 3 mps 755 mmHg 47%
    14:00 +23°C° 0 mm 2 mps 755 mmHg 43%
    15:00 +23°C° 0 mm 2 mps 755 mmHg 40%
    16:00 +21°C° 0 mm 2 mps 755 mmHg 43%
    17:00 +20°C° 0 mm 2 mps 755 mmHg 46%
    18:00 +19°C° 0 mm 2 mps 755 mmHg 49%
    19:00 +18°C° 0 mm 2 mps 755 mmHg 51%
    20:00 +18°C° 0 mm 2 mps 755 mmHg 53%
    21:00 +17°C° 0 mm 2 mps 755 mmHg 55%
    22:00 +16°C° 0 mm 2 mps 755 mmHg 56%
    23:00 +16°C° 0 mm 2 mps 755 mmHg 58%

    19 October, Saturday

    Time Temperature Precipitation Wind Pressure Humidity
    00:00 +15°C° 0 mm 2 mps 755 mmHg 59%
    01:00 +15°C° 0 mm 2 mps 755 mmHg 60%
    02:00 +15°C° 0 mm 2 mps 755 mmHg 61%
    03:00 +14°C° 0 mm 2 mps 756 mmHg 62%
    04:00 +14°C° 0 mm 2 mps 756 mmHg 64%
    05:00 +14°C° 0 mm 2 mps 756 mmHg 65%
    06:00 +12°C° 0 mm 3 mps 756 mmHg 66%
    07:00 +13°C° 0 mm 3 mps 756 mmHg 63%
    08:00 +14°C° 0 mm 3 mps 757 mmHg 60%
    09:00 +16°C° 0 mm 3 mps 757 mmHg 57%
    10:00 +18°C° 0 mm 3 mps 757 mmHg 52%
    11:00 +19°C° 0 mm 3 mps 757 mmHg 47%
    12:00 +21°C° 0 mm 3 mps 757 mmHg 41%
    13:00 +21°C° 0 mm 3 mps 757 mmHg 40%
    14:00 +22°C° 0 mm 3 mps 757 mmHg 39%
    15:00 +22°C° 0 mm 3 mps 757 mmHg 37%
    16:00 +21°C° 0 mm 3 mps 757 mmHg 42%
    17:00 +20°C° 0 mm 3 mps 757 mmHg 47%
    18:00 +19°C° 0 mm 3 mps 757 mmHg 52%
    19:00 +18°C° 0 mm 3 mps 757 mmHg 54%
    20:00 +17°C° 0 mm 4 mps 757 mmHg 56%
    21:00 +15°C° 0 mm 4 mps 757 mmHg 58%
    22:00 +15°C° 0 mm 4 mps 758 mmHg 60%
    23:00 +14°C° 0 mm 4 mps 758 mmHg 62%

    20 October, Sunday

    Time Temperature Precipitation Wind Pressure Humidity
    00:00 +14°C° 0 mm 4 mps 758 mmHg 64%
    01:00 +13°C° 0 mm 4 mps 758 mmHg 66%
    02:00 +13°C° 0 mm 4 mps 758 mmHg 69%
    03:00 +12°C° 0 mm 4 mps 758 mmHg 71%
    04:00 +12°C° 0 mm 4 mps 758 mmHg 73%
    05:00 +12°C° 0 mm 4 mps 758 mmHg 75%
    06:00 +11°C° 0 mm 4 mps 759 mmHg 77%
    07:00 +12°C° 0 mm 5 mps 759 mmHg 74%
    08:00 +13°C° 0 mm 5 mps 759 mmHg 71%
    09:00 +13°C° 0 mm 5 mps 759 mmHg 68%
    10:00 +15°C° 0 mm 5 mps 759 mmHg 63%
    11:00 +16°C° 0 mm 5 mps 759 mmHg 57%
    12:00 +19°C° 0 mm 5 mps 760 mmHg 52%
    13:00 +19°C° 0 mm 5 mps 759 mmHg 50%
    14:00 +20°C° 0 mm 5 mps 759 mmHg 49%
    15:00 +20°C° 0 mm 5 mps 759 mmHg 48%
    16:00 +19°C° 0 mm 4 mps 759 mmHg 52%
    17:00 +18°C° 0 mm 4 mps 759 mmHg 56%
    18:00 +17°C° 0 mm 4 mps 759 mmHg 60%
    19:00 +15°C° 0 mm 4 mps 759 mmHg 62%
    20:00 +15°C° 0 mm 5 mps 760 mmHg 64%
    21:00 +14°C° 0 mm 5 mps 760 mmHg 65%
    22:00 +14°C° 0 mm 5 mps 760 mmHg 66%
    23:00 +13°C° 0 mm 5 mps 760 mmHg 66%
    Show more